Weather History for Warsaw, Poland

Change the Weather History Date:

Thursday, December 26, 2013

  Actual Average Record
Temperature  
Mean Temperature 46 °F -  
Max Temperature 50 °F 32 °F 50 °F (2013)
Min Temperature 41 °F 22 °F -4 °F (2002)
Degree Days  
Heating Degree Days 20    
Moisture  
Dew Point 35 °F    
Average Humidity 65    
Maximum Humidity 76    
Minimum Humidity 51    
Precipitation  
Precipitation 0.00 in 0.03 in - ()
Sea Level Pressure  
Sea Level Pressure 29.61 in    
Wind  
Wind Speed 10 mph ()    
Max Wind Speed 15 mph    
Max Gust Speed -    
Visibility 12.0 miles    
Events      
Averages and records for this station are not official NWS values.
T = Trace of Precipitation, MM = Missing Value Source: Averaged Metar Reports

Daily Weather History Graph

Daily Weather History Graph

Search for Another Location

Airport:

Trip Planner

Search our weather history database for the weather conditions in past years. The results will help you decide how hot, cold, wet, or windy it might be!

Date:

Astronomy

Dec. 26, 2013 Rise Set
Actual Time 7:44 AM CET 3:28 PM CET
Civil Twilight 7:03 AM CET 4:10 PM CET
Nautical Twilight 6:19 AM CET 4:53 PM CET
Astronomical Twilight 5:38 AM CET 5:35 PM CET
Moon 12:17 AM CET (12/26) 11:28 AM CET (12/26)
Length of Visible Light 9h 06m
Length of Day
7h 44m
Last Quarter, 41% of the Moon is Illuminated
Dec 26
Last Quarter
Jan 1
New
Jan 8
First Quarter
Jan 16
Full
Jan 24
Last Quarter

Hourly Weather History & Observations

Time (CET) Temp. Windchill Dew Point Humidity Pressure Visibility Wind Dir Wind Speed Gust Speed Precip Events Conditions
12:00 AM 43 °F - 33 °F 56% 29.62 in 12 mi SE 8.9 mph - -   Scattered Clouds
12:00 AM 42.8 °F 36.2 °F 32.0 °F 66% 29.59 in - SE 12.7 mph - N/A   Clear
12:30 AM 42.8 °F 36.6 °F 32.0 °F 66% 29.59 in - SSE 11.5 mph - N/A   Clear
1:00 AM 43 °F - 33 °F 56% 29.62 in 12 mi SE 8.9 mph - -   Clear
1:00 AM 42.8 °F 36.6 °F 32.0 °F 66% 29.59 in - SSE 11.5 mph - N/A   Clear
1:30 AM 42.8 °F 36.6 °F 32.0 °F 66% 29.59 in - SSE 11.5 mph - N/A   Clear
2:00 AM 43 °F - 33 °F 57% 29.63 in 12 mi SE 6.7 mph - -   Clear
2:00 AM 42.8 °F 37.0 °F 32.0 °F 66% 29.62 in - SSE 10.4 mph - N/A   Clear
2:30 AM 42.8 °F 37.5 °F 33.8 °F 70% 29.62 in - SE 9.2 mph - N/A   Clear
3:00 AM 43 °F - 33 °F 57% 29.62 in 12 mi SE 8.9 mph - -   Overcast
3:00 AM 42.8 °F 36.6 °F 33.8 °F 70% 29.59 in - SSE 11.5 mph - N/A   Clear
3:30 AM 42.8 °F 36.2 °F 32.0 °F 66% 29.59 in - SSE 12.7 mph - N/A   Clear
4:00 AM 43 °F - 33 °F 57% 29.62 in 12 mi SSE 11.2 mph - -   Partly Cloudy
4:00 AM 42.8 °F 35.8 °F 32.0 °F 66% 29.59 in - SSE 13.8 mph - N/A   Clear
4:30 AM 42.8 °F 35.8 °F 33.8 °F 70% 29.59 in - SSE 13.8 mph - N/A   Clear
5:00 AM 43 °F - 33 °F 58% 29.62 in 12 mi SE 8.9 mph - -   Scattered Clouds
5:00 AM 42.8 °F 36.2 °F 33.8 °F 70% 29.59 in - SSE 12.7 mph - N/A   Clear
5:30 AM 42.8 °F 37.0 °F 33.8 °F 70% 29.59 in - SSE 10.4 mph - N/A   Clear
6:00 AM 42 °F - 34 °F 63% 29.62 in 12 mi SE 6.7 mph - -   Scattered Clouds
6:00 AM 42.8 °F 37.0 °F 33.8 °F 70% 29.59 in - SSE 10.4 mph - N/A   Clear
6:30 AM 41.0 °F 35.2 °F 33.8 °F 76% 29.59 in - SSE 9.2 mph - N/A   Clear
7:00 AM 42 °F - 34 °F 63% 29.63 in 12 mi SE 6.7 mph - -   Partly Cloudy
7:00 AM 41.0 °F 34.7 °F 33.8 °F 76% 29.59 in - SSE 10.4 mph - N/A   Clear
7:30 AM 41.0 °F 35.2 °F 33.8 °F 76% 29.59 in - SE 9.2 mph - N/A   Clear
8:00 AM 43 °F - 35 °F 63% 29.62 in 12 mi SE 8.9 mph - -   Mostly Cloudy
8:00 AM 42.8 °F 37.0 °F 35.6 °F 76% 29.59 in - SE 10.4 mph - N/A   Clear
8:30 AM 42.8 °F 37.0 °F 35.6 °F 76% 29.59 in - SE 10.4 mph - N/A   Clear
9:00 AM 45 °F - 36 °F 60% 29.62 in 12 mi SE 8.9 mph - -   Mostly Cloudy
9:00 AM 44.6 °F 38.4 °F 35.6 °F 71% 29.59 in - SE 12.7 mph - N/A   Clear
9:30 AM 44.6 °F 38.8 °F 35.6 °F 71% 29.59 in - SSE 11.5 mph - N/A   Clear
10:00 AM 46 °F - 36 °F 58% 29.63 in 12 mi SE 8.9 mph - -   Mostly Cloudy
10:00 AM 46.4 °F 40.7 °F 35.6 °F 66% 29.62 in - SSE 12.7 mph - N/A   Clear
10:30 AM 46.4 °F 40.7 °F 37.4 °F 71% 29.62 in - SSE 12.7 mph - N/A   Clear
11:00 AM 47 °F - 36 °F 56% 29.63 in 12 mi SE 11.2 mph - -   Mostly Cloudy
11:00 AM 46.4 °F 40.7 °F 37.4 °F 71% 29.59 in - SSE 12.7 mph - N/A   Clear
11:30 AM 46.4 °F 40.7 °F 35.6 °F 66% 29.59 in - SSE 12.7 mph - N/A   Clear
12:00 PM 49 °F - 37 °F 53% 29.62 in 12 mi SE 11.2 mph - -   Mostly Cloudy
12:00 PM 48.2 °F - 37.4 °F 66% 29.59 in - SSE 12.7 mph - N/A   Clear
12:30 PM 48.2 °F - 37.4 °F 66% 29.59 in - SSE 13.8 mph - N/A   Clear
1:00 PM 49 °F - 37 °F 53% 29.61 in 12 mi SSE 13.4 mph - -   Partly Cloudy
1:00 PM 48.2 °F - 37.4 °F 66% 29.59 in - SSE 15.0 mph - N/A   Clear
1:30 PM 48.2 °F - 37.4 °F 66% 29.59 in - SSE 13.8 mph - N/A   Clear
2:00 PM 50 °F - 37 °F 51% 29.61 in 12 mi SE 11.2 mph - -   Partly Cloudy
2:00 PM 50.0 °F - 37.4 °F 62% 29.59 in - SSE 13.8 mph - N/A   Clear
2:30 PM 50.0 °F - 37.4 °F 62% 29.59 in - SSE 13.8 mph - N/A   Clear
3:00 PM 49 °F - 37 °F 52% 29.62 in 12 mi SE 11.2 mph - -   Partly Cloudy
3:00 PM 48.2 °F - 37.4 °F 66% 29.59 in - SE 13.8 mph - N/A   Clear
3:30 PM 48.2 °F - 37.4 °F 66% 29.59 in - SE 15.0 mph - N/A   Clear
4:00 PM 49 °F - 37 °F 53% 29.63 in 12 mi SE 8.9 mph - -   Mostly Cloudy
4:00 PM 48.2 °F - 37.4 °F 66% 29.59 in - SE 10.4 mph - N/A   Clear
4:30 PM 48.2 °F - 37.4 °F 66% 29.59 in - ESE 10.4 mph - N/A   Clear
5:00 PM 48 °F - 37 °F 56% 29.63 in 12 mi ESE 11.2 mph - -   Mostly Cloudy
5:00 PM 48.2 °F - 37.4 °F 66% 29.59 in - SE 10.4 mph - N/A   Clear
5:30 PM 48.2 °F - 37.4 °F 66% 29.59 in - SE 13.8 mph - N/A   Clear
6:00 PM 48 °F - 37 °F 56% 29.63 in 12 mi SE 8.9 mph - -   Mostly Cloudy
6:00 PM 48.2 °F - 37.4 °F 66% 29.59 in - SE 11.5 mph - N/A   Clear
6:30 PM 48.2 °F - 37.4 °F 66% 29.62 in - SE 11.5 mph - N/A   Clear
7:00 PM 48 °F - 37 °F 54% 29.65 in 12 mi SE 6.7 mph - -   Mostly Cloudy
7:00 PM 48.2 °F - 37.4 °F 66% 29.62 in - SE 10.4 mph - N/A   Clear
7:30 PM 48.2 °F - 37.4 °F 66% 29.62 in - SE 10.4 mph - N/A   Clear
8:00 PM 48 °F - 37 °F 55% 29.65 in 12 mi SE 8.9 mph - -   Mostly Cloudy
8:00 PM 48.2 °F - 37.4 °F 66% 29.62 in - SE 11.5 mph - N/A   Clear
8:30 PM 46.4 °F 40.7 °F 37.4 °F 71% 29.62 in - SE 12.7 mph - N/A   Clear
9:00 PM 47 °F - 36 °F 57% 29.66 in 12 mi SE 8.9 mph - -   Mostly Cloudy
9:00 PM 46.4 °F 40.7 °F 37.4 °F 71% 29.62 in - SE 12.7 mph - N/A   Clear
9:30 PM 44.6 °F 38.4 °F 35.6 °F 71% 29.65 in - SE 12.7 mph - N/A   Clear
10:00 PM 45 °F - 36 °F 61% 29.68 in 12 mi SE 8.9 mph - -   Mostly Cloudy
10:00 PM 44.6 °F 38.1 °F 35.6 °F 71% 29.65 in - SE 13.8 mph - N/A   Clear
10:30 PM 44.6 °F 38.4 °F 35.6 °F 71% 29.65 in - SE 12.7 mph - N/A   Clear
11:00 PM 44 °F - 35 °F 60% 29.68 in 12 mi SE 8.9 mph - -   Mostly Cloudy
11:00 PM 42.8 °F 36.2 °F 35.6 °F 76% 29.65 in - SE 12.7 mph - N/A   Clear
11:30 PM 42.8 °F 36.2 °F 35.6 °F 76% 29.65 in - SE 12.7 mph - N/A   Clear